Time,TemperatureF,DewpointF,PressureIn,WindDirection,WindDirectionDegrees,WindSpeedMPH,WindSpeedGustMPH,Humidity,HourlyPrecipIn,Conditions,Clouds,dailyrainin,SoftwareType,DateUTC
2013-06-10 00:01:00,62.9,55.9,30.10,SE,134,0.0,0.0,78,0.00,,CLR,0.00,VWS V14.00,2013-06-10 04:01:00,
2013-06-10 00:02:00,62.9,55.9,30.10,SE,134,0.0,0.0,78,0.00,,CLR,0.00,VWS V14.00,2013-06-10 04:02:00,
2013-06-10 00:07:00,62.7,55.8,30.10,SE,135,0.0,0.0,78,0.00,,CLR,0.00,VWS V14.00,2013-06-10 04:07:00,
2013-06-10 00:12:00,62.6,55.7,30.10,SE,135,0.0,0.0,78,0.00,,CLR,0.00,VWS V14.00,2013-06-10 04:12:00,
2013-06-10 00:17:00,62.4,55.5,30.10,SE,135,0.0,0.0,78,0.00,,CLR,0.00,VWS V14.00,2013-06-10 04:17:00,
2013-06-10 00:22:00,62.3,55.4,30.10,SE,135,0.0,0.0,78,0.00,,CLR,0.00,VWS V14.00,2013-06-10 04:22:00,
2013-06-10 00:27:00,62.1,55.2,30.10,SE,134,0.0,0.0,78,0.00,,CLR,0.00,VWS V14.00,2013-06-10 04:27:00,
2013-06-10 00:32:00,62.1,55.2,30.10,SE,135,0.0,0.0,78,0.00,,CLR,0.00,VWS V14.00,2013-06-10 04:32:00,
2013-06-10 00:37:00,62.0,55.4,30.10,SE,135,0.0,0.0,79,0.00,,CLR,0.00,VWS V14.00,2013-06-10 04:37:00,
2013-06-10 00:42:00,61.8,55.2,30.10,SE,135,0.0,0.0,79,0.00,,CLR,0.00,VWS V14.00,2013-06-10 04:42:00,
2013-06-10 00:48:00,61.6,55.0,30.10,SE,135,0.0,0.0,79,0.00,,CLR,0.00,VWS V14.00,2013-06-10 04:48:00,
2013-06-10 00:53:00,61.5,54.9,30.10,SE,135,0.0,0.0,79,0.00,,CLR,0.00,VWS V14.00,2013-06-10 04:53:00,
2013-06-10 00:58:00,61.3,54.7,30.10,SE,135,0.0,0.0,79,0.00,,CLR,0.00,VWS V14.00,2013-06-10 04:58:00,
2013-06-10 01:03:00,61.3,55.1,30.09,SE,134,0.0,0.0,80,0.00,,CLR,0.00,VWS V14.00,2013-06-10 05:03:00,
2013-06-10 01:08:00,61.2,55.0,30.09,SE,134,0.0,0.0,80,0.00,,CLR,0.00,VWS V14.00,2013-06-10 05:08:00,
2013-06-10 01:13:00,61.0,55.1,30.09,SE,135,0.0,0.0,81,0.00,,CLR,0.00,VWS V14.00,2013-06-10 05:13:00,
2013-06-10 01:18:00,61.0,55.1,30.09,SE,135,0.0,0.0,81,0.00,,CLR,0.00,VWS V14.00,2013-06-10 05:18:00,
2013-06-10 01:23:00,60.9,55.4,30.09,SE,134,0.0,0.0,82,0.00,,CLR,0.00,VWS V14.00,2013-06-10 05:23:00,
2013-06-10 01:28:00,60.7,55.2,30.09,SE,135,0.0,0.0,82,0.00,,CLR,0.00,VWS V14.00,2013-06-10 05:28:00,
2013-06-10 01:33:00,60.4,55.2,30.10,ENE,75,0.0,0.0,83,0.00,,CLR,0.00,VWS V14.00,2013-06-10 05:33:00,
2013-06-10 01:38:00,60.2,55.0,30.10,ENE,75,0.0,0.0,83,0.00,,CLR,0.00,VWS V14.00,2013-06-10 05:38:00,
2013-06-10 01:43:00,60.1,55.3,30.10,ENE,75,0.0,0.0,84,0.00,,CLR,0.00,VWS V14.00,2013-06-10 05:43:00,
2013-06-10 01:48:00,59.9,55.1,30.10,ENE,75,0.0,0.0,84,0.00,,,0.00,VWS V14.00,2013-06-10 05:48:00,
2013-06-10 01:53:00,59.9,55.1,30.10,ENE,75,0.0,0.0,84,0.00,,,0.00,VWS V14.00,2013-06-10 05:53:00,
2013-06-10 01:58:00,59.8,55.0,30.10,ENE,75,0.0,0.0,84,0.00,,,0.00,VWS V14.00,2013-06-10 05:58:00,
2013-06-10 02:03:00,59.8,55.3,30.10,ENE,75,0.0,0.0,85,0.00,,,0.00,VWS V14.00,2013-06-10 06:03:00,
2013-06-10 02:08:00,59.6,55.1,30.10,ENE,75,0.0,0.0,85,0.00,,,0.00,VWS V14.00,2013-06-10 06:08:00,
2013-06-10 02:13:00,59.6,55.1,30.10,ENE,75,0.0,0.0,85,0.00,,,0.00,VWS V14.00,2013-06-10 06:13:00,
2013-06-10 02:18:00,59.6,55.1,30.10,ENE,75,0.0,0.0,85,0.00,,,0.00,VWS V14.00,2013-06-10 06:18:00,
2013-06-10 02:23:00,59.5,55.0,30.10,ENE,75,0.0,0.0,85,0.00,,,0.00,VWS V14.00,2013-06-10 06:23:00,
2013-06-10 02:28:00,59.5,55.0,30.10,ENE,75,0.0,0.0,85,0.00,,,0.00,VWS V14.00,2013-06-10 06:28:00,
2013-06-10 02:33:00,59.5,55.3,30.10,ENE,75,0.0,0.0,86,0.00,,,0.00,VWS V14.00,2013-06-10 06:33:00,
2013-06-10 02:38:00,59.5,55.3,30.10,ENE,75,0.0,0.0,86,0.00,,,0.00,VWS V14.00,2013-06-10 06:38:00,
2013-06-10 02:43:00,59.5,55.3,30.10,ENE,75,0.0,0.0,86,0.00,,,0.00,VWS V14.00,2013-06-10 06:43:00,
2013-06-10 02:48:00,59.5,55.3,30.09,ENE,75,0.0,0.0,86,0.00,,BKN110,0.00,VWS V14.00,2013-06-10 06:48:00,
2013-06-10 02:53:00,59.5,55.3,30.09,ENE,75,0.0,0.0,86,0.00,,BKN110,0.00,VWS V14.00,2013-06-10 06:53:00,
2013-06-10 02:58:00,59.6,55.4,30.09,ENE,75,0.0,0.0,86,0.00,,BKN110,0.00,VWS V14.00,2013-06-10 06:58:00,
2013-06-10 03:03:00,59.6,55.7,30.09,ENE,75,0.0,0.0,87,0.00,,BKN110,0.00,VWS V14.00,2013-06-10 07:03:00,
2013-06-10 03:08:00,59.6,55.7,30.09,ENE,75,0.0,0.0,87,0.00,,BKN110,0.00,VWS V14.00,2013-06-10 07:08:00,
2013-06-10 03:13:00,59.6,55.7,30.09,ENE,75,0.0,0.0,87,0.00,,BKN110,0.00,VWS V14.00,2013-06-10 07:13:00,
2013-06-10 03:18:00,59.6,55.7,30.09,ENE,75,0.0,0.0,87,0.00,,BKN110,0.00,VWS V14.00,2013-06-10 07:18:00,
2013-06-10 03:23:00,59.6,55.7,30.09,ENE,75,0.0,1.0,87,0.00,,BKN110,0.00,VWS V14.00,2013-06-10 07:23:00,
2013-06-10 03:28:00,59.5,55.6,30.09,ENE,75,0.0,0.0,87,0.00,,BKN110,0.00,VWS V14.00,2013-06-10 07:28:00,
2013-06-10 03:33:00,59.5,55.6,30.09,ENE,75,0.0,0.0,87,0.00,,BKN110,0.00,VWS V14.00,2013-06-10 07:33:00,
2013-06-10 03:38:00,59.5,55.6,30.09,ENE,75,0.0,0.0,87,0.00,,BKN110,0.00,VWS V14.00,2013-06-10 07:38:00,
2013-06-10 03:43:00,59.5,55.6,30.09,ENE,75,0.0,0.0,87,0.00,,BKN110,0.00,VWS V14.00,2013-06-10 07:43:00,
2013-06-10 03:48:00,59.5,56.0,30.08,ENE,75,0.0,0.0,88,0.00,,,0.00,VWS V14.00,2013-06-10 07:48:00,
2013-06-10 03:53:00,59.5,56.0,30.08,ENE,75,0.0,0.0,88,0.00,,,0.00,VWS V14.00,2013-06-10 07:53:00,
2013-06-10 03:58:00,59.5,56.0,30.08,ENE,75,0.0,0.0,88,0.00,,,0.00,VWS V14.00,2013-06-10 07:58:00,
2013-06-10 04:03:00,59.3,55.8,30.08,ENE,75,0.0,0.0,88,0.00,,,0.00,VWS V14.00,2013-06-10 08:03:00,
2013-06-10 04:08:00,59.3,55.8,30.08,ENE,75,0.0,0.0,88,0.00,,,0.00,VWS V14.00,2013-06-10 08:08:00,
2013-06-10 04:13:00,59.3,55.8,30.08,ENE,75,0.0,0.0,88,0.00,,,0.00,VWS V14.00,2013-06-10 08:13:00,
2013-06-10 04:18:00,59.2,55.7,30.08,ENE,75,0.0,0.0,88,0.00,,,0.00,VWS V14.00,2013-06-10 08:18:00,
2013-06-10 04:23:00,59.2,55.7,30.08,ENE,75,0.0,0.0,88,0.00,,,0.00,VWS V14.00,2013-06-10 08:23:00,
2013-06-10 04:28:00,59.2,55.7,30.08,ENE,75,0.0,0.0,88,0.00,,,0.00,VWS V14.00,2013-06-10 08:28:00,
2013-06-10 04:34:00,59.0,55.8,30.09,ENE,75,0.0,0.0,89,0.00,,,0.00,VWS V14.00,2013-06-10 08:34:00,
2013-06-10 04:39:00,59.0,55.5,30.09,ENE,75,0.0,0.0,88,0.00,,,0.00,VWS V14.00,2013-06-10 08:39:00,
2013-06-10 04:44:00,59.0,55.5,30.09,ENE,75,0.0,0.0,88,0.00,,,0.00,VWS V14.00,2013-06-10 08:44:00,
2013-06-10 04:49:00,58.9,55.7,30.08,ENE,75,0.0,0.0,89,0.00,,CLR,0.00,VWS V14.00,2013-06-10 08:49:00,
2013-06-10 04:54:00,58.9,55.7,30.08,ENE,75,0.0,0.0,89,0.00,,CLR,0.00,VWS V14.00,2013-06-10 08:54:00,
2013-06-10 04:59:00,58.9,55.7,30.08,ENE,75,0.0,0.0,89,0.00,,CLR,0.00,VWS V14.00,2013-06-10 08:59:00,
2013-06-10 05:04:00,58.9,55.7,30.08,ENE,75,0.0,0.0,89,0.00,,CLR,0.00,VWS V14.00,2013-06-10 09:04:00,
2013-06-10 05:09:00,58.9,55.7,30.08,ENE,75,0.0,0.0,89,0.00,,CLR,0.00,VWS V14.00,2013-06-10 09:09:00,
2013-06-10 05:14:00,58.9,55.7,30.08,ENE,75,0.0,0.0,89,0.00,,CLR,0.00,VWS V14.00,2013-06-10 09:14:00,
2013-06-10 05:19:00,58.7,55.5,30.08,ENE,75,0.0,1.0,89,0.00,,CLR,0.00,VWS V14.00,2013-06-10 09:19:00,
2013-06-10 05:24:00,58.7,55.5,30.08,ENE,75,0.0,0.0,89,0.00,,CLR,0.00,VWS V14.00,2013-06-10 09:24:00,
2013-06-10 05:29:00,58.7,55.5,30.08,ENE,75,0.0,0.0,89,0.00,,CLR,0.00,VWS V14.00,2013-06-10 09:29:00,
2013-06-10 05:34:00,58.7,55.5,30.08,ENE,75,0.0,0.0,89,0.00,,BKN120,0.00,VWS V14.00,2013-06-10 09:34:00,
2013-06-10 05:39:00,58.6,55.4,30.08,ENE,75,0.0,0.0,89,0.00,,BKN120,0.00,VWS V14.00,2013-06-10 09:39:00,
2013-06-10 05:44:00,58.7,55.8,30.08,ENE,75,0.0,0.0,90,0.00,,BKN120,0.00,VWS V14.00,2013-06-10 09:44:00,
2013-06-10 05:49:00,58.6,55.7,30.08,ENE,75,0.0,0.0,90,0.00,,BKN120,0.00,VWS V14.00,2013-06-10 09:49:00,
2013-06-10 05:54:00,58.6,55.7,30.08,ENE,75,0.0,1.0,90,0.00,,BKN120,0.00,VWS V14.00,2013-06-10 09:54:00,
2013-06-10 05:59:00,58.6,55.7,30.08,ENE,75,0.0,0.0,90,0.00,,BKN120,0.00,VWS V14.00,2013-06-10 09:59:00,
2013-06-10 06:04:00,58.6,55.7,30.08,ENE,75,0.0,0.0,90,0.00,,BKN120,0.00,VWS V14.00,2013-06-10 10:04:00,
2013-06-10 06:09:00,58.4,55.5,30.08,ENE,75,0.0,1.0,90,0.00,,BKN120,0.00,VWS V14.00,2013-06-10 10:09:00,
2013-06-10 06:14:00,58.4,55.5,30.08,ENE,75,0.0,0.0,90,0.00,,BKN120,0.00,VWS V14.00,2013-06-10 10:14:00,
2013-06-10 06:19:00,58.4,55.5,30.08,ENE,75,0.0,0.0,90,0.00,,BKN120,0.00,VWS V14.00,2013-06-10 10:19:00,
2013-06-10 06:24:00,58.6,55.7,30.08,ENE,75,0.0,1.0,90,0.00,,BKN120,0.00,VWS V14.00,2013-06-10 10:24:00,
2013-06-10 06:29:00,58.6,55.7,30.08,ENE,75,1.0,2.0,90,0.00,,BKN120,0.00,VWS V14.00,2013-06-10 10:29:00,
2013-06-10 06:34:00,58.9,56.3,30.08,ENE,75,0.0,0.0,91,0.00,,BKN120,0.00,VWS V14.00,2013-06-10 10:34:00,
2013-06-10 06:39:00,58.9,56.3,30.08,ENE,75,0.0,0.0,91,0.00,,BKN120,0.00,VWS V14.00,2013-06-10 10:39:00,
2013-06-10 06:44:00,59.3,56.7,30.08,ENE,75,0.0,0.0,91,0.00,,BKN120,0.00,VWS V14.00,2013-06-10 10:44:00,
2013-06-10 06:49:00,59.3,56.7,30.08,ENE,75,0.0,0.0,91,0.00,,OVC095,0.00,VWS V14.00,2013-06-10 10:49:00,
2013-06-10 06:54:00,59.3,56.7,30.08,ENE,75,0.0,0.0,91,0.00,,OVC095,0.00,VWS V14.00,2013-06-10 10:54:00,
2013-06-10 06:59:00,59.3,57.0,30.08,ENE,75,0.0,0.0,92,0.00,,OVC095,0.00,VWS V14.00,2013-06-10 10:59:00,
2013-06-10 07:04:00,59.3,56.7,30.08,ENE,75,0.0,0.0,91,0.00,,OVC095,0.00,VWS V14.00,2013-06-10 11:04:00,
2013-06-10 07:09:00,59.5,56.9,30.08,ENE,75,0.0,0.0,91,0.00,,OVC095,0.00,VWS V14.00,2013-06-10 11:09:00,
2013-06-10 07:14:00,59.9,57.6,30.08,ENE,75,0.0,0.0,92,0.00,,OVC095,0.00,VWS V14.00,2013-06-10 11:14:00,
2013-06-10 07:19:00,60.1,57.8,30.08,ENE,75,0.0,0.0,92,0.00,,OVC095,0.00,VWS V14.00,2013-06-10 11:19:00,
2013-06-10 07:24:00,59.8,57.2,30.08,ENE,75,0.0,0.0,91,0.00,,OVC095,0.00,VWS V14.00,2013-06-10 11:24:00,
2013-06-10 07:29:00,59.6,57.0,30.08,ENE,75,0.0,0.0,91,0.00,,OVC095,0.00,VWS V14.00,2013-06-10 11:29:00,
2013-06-10 07:34:00,59.8,57.2,30.08,ENE,75,0.0,0.0,91,0.00,,OVC095,0.00,VWS V14.00,2013-06-10 11:34:00,
2013-06-10 07:39:00,60.2,57.6,30.08,ENE,75,0.0,0.0,91,0.00,,OVC095,0.00,VWS V14.00,2013-06-10 11:39:00,
2013-06-10 07:44:00,60.4,57.8,30.08,ENE,75,0.0,0.0,91,0.00,,OVC095,0.00,VWS V14.00,2013-06-10 11:44:00,
2013-06-10 07:49:00,60.2,57.6,30.08,ENE,75,0.0,0.0,91,0.00,,OVC065,0.00,VWS V14.00,2013-06-10 11:49:00,
2013-06-10 07:54:00,60.4,57.8,30.08,ENE,75,0.0,1.0,91,0.00,,OVC065,0.00,VWS V14.00,2013-06-10 11:54:00,
2013-06-10 07:59:00,60.7,58.1,30.08,ENE,75,0.0,0.0,91,0.00,,OVC065,0.00,VWS V14.00,2013-06-10 11:59:00,
2013-06-10 08:04:00,60.5,57.6,30.08,ENE,75,0.0,0.0,90,0.00,,OVC065,0.00,VWS V14.00,2013-06-10 12:04:00,
2013-06-10 08:09:00,60.5,57.6,30.08,ENE,75,0.0,0.0,90,0.00,,OVC065,0.00,VWS V14.00,2013-06-10 12:09:00,
2013-06-10 08:14:00,60.5,57.6,30.08,ENE,75,0.0,0.0,90,0.00,,OVC065,0.00,VWS V14.00,2013-06-10 12:14:00,
2013-06-10 08:19:00,60.5,57.6,30.08,ENE,75,0.0,0.0,90,0.00,,OVC065,0.00,VWS V14.00,2013-06-10 12:19:00,
2013-06-10 08:24:00,60.7,57.8,30.08,ENE,75,0.0,0.0,90,0.00,,OVC065,0.00,VWS V14.00,2013-06-10 12:24:00,
2013-06-10 08:29:00,60.5,57.6,30.08,ENE,75,0.0,1.0,90,0.00,,OVC065,0.00,VWS V14.00,2013-06-10 12:29:00,
2013-06-10 08:35:00,60.5,57.2,30.08,ENE,75,0.0,0.0,89,0.00,,OVC065,0.00,VWS V14.00,2013-06-10 12:35:00,
2013-06-10 08:40:00,60.5,57.6,30.08,ENE,75,0.0,1.0,90,0.00,,OVC065,0.00,VWS V14.00,2013-06-10 12:40:00,
2013-06-10 08:45:00,60.7,57.8,30.08,ENE,75,0.0,1.0,90,0.00,,OVC065,0.00,VWS V14.00,2013-06-10 12:45:00,
2013-06-10 08:50:00,60.9,58.0,30.08,ENE,75,0.0,0.0,90,0.00,,OVC065,0.00,VWS V14.00,2013-06-10 12:50:00,
2013-06-10 08:55:00,61.2,58.2,30.08,ENE,75,0.0,0.0,90,0.00,,OVC065,0.00,VWS V14.00,2013-06-10 12:55:00,
2013-06-10 09:00:00,61.3,58.3,30.08,ENE,75,0.0,0.0,90,0.00,,OVC065,0.00,VWS V14.00,2013-06-10 13:00:00,
2013-06-10 09:05:00,61.5,58.5,30.08,ENE,75,0.0,0.0,90,0.00,,BKN090,0.00,VWS V14.00,2013-06-10 13:05:00,
2013-06-10 09:10:00,61.5,58.2,30.08,ENE,75,0.0,1.0,89,0.00,,BKN090,0.00,VWS V14.00,2013-06-10 13:10:00,
2013-06-10 09:15:00,61.6,58.3,30.08,ENE,75,0.0,1.0,89,0.00,,BKN090,0.00,VWS V14.00,2013-06-10 13:15:00,
2013-06-10 09:20:00,61.6,58.0,30.08,ENE,75,0.0,0.0,88,0.00,,BKN090,0.00,VWS V14.00,2013-06-10 13:20:00,
2013-06-10 09:25:00,62.0,58.7,30.08,ENE,75,0.0,0.0,89,0.00,,BKN090,0.00,VWS V14.00,2013-06-10 13:25:00,
2013-06-10 09:30:00,62.1,58.5,30.08,ENE,75,0.0,0.0,88,0.00,,BKN090,0.00,VWS V14.00,2013-06-10 13:30:00,
2013-06-10 09:35:00,62.1,58.5,30.08,ENE,75,0.0,0.0,88,0.00,,BKN090,0.00,VWS V14.00,2013-06-10 13:35:00,
2013-06-10 09:40:00,62.3,58.7,30.08,ENE,75,0.0,0.0,88,0.00,,BKN090,0.00,VWS V14.00,2013-06-10 13:40:00,
2013-06-10 09:45:00,62.4,58.8,30.08,ENE,75,0.0,0.0,88,0.00,,BKN090,0.00,VWS V14.00,2013-06-10 13:45:00,
2013-06-10 09:50:00,62.4,58.8,30.08,ENE,75,0.0,0.0,88,0.00,,BKN090,0.00,VWS V14.00,2013-06-10 13:50:00,
2013-06-10 09:55:00,62.6,59.0,30.08,ENE,75,0.0,1.0,88,0.00,,BKN090,0.00,VWS V14.00,2013-06-10 13:55:00,
2013-06-10 10:00:00,62.7,59.1,30.08,ENE,75,0.0,1.0,88,0.00,,BKN090,0.00,VWS V14.00,2013-06-10 14:00:00,
2013-06-10 10:05:00,62.9,59.0,30.07,ENE,75,0.0,0.0,87,0.00,,BKN090,0.00,VWS V14.00,2013-06-10 14:05:00,
2013-06-10 10:10:00,63.2,59.3,30.07,ENE,75,0.0,0.0,87,0.00,,BKN090,0.00,VWS V14.00,2013-06-10 14:10:00,
2013-06-10 10:15:00,63.4,59.2,30.07,ENE,75,0.0,0.0,86,0.00,,BKN090,0.00,VWS V14.00,2013-06-10 14:15:00,
2013-06-10 10:20:00,63.7,59.4,30.08,ENE,75,0.0,0.0,86,0.00,,BKN090,0.00,VWS V14.00,2013-06-10 14:20:00,
2013-06-10 10:25:00,64.3,60.0,30.08,ENE,75,0.0,0.0,86,0.00,,BKN090,0.00,VWS V14.00,2013-06-10 14:25:00,
2013-06-10 10:30:00,64.8,60.2,30.08,ENE,75,0.0,1.0,85,0.00,,BKN090,0.00,VWS V14.00,2013-06-10 14:30:00,
2013-06-10 10:35:00,65.6,60.0,30.07,WSW,256,0.0,3.0,82,0.00,,BKN090,0.00,VWS V14.00,2013-06-10 14:35:00,
2013-06-10 10:40:00,66.3,59.2,30.07,NNE,27,2.0,4.0,78,0.00,,BKN090,0.00,VWS V14.00,2013-06-10 14:40:00,
2013-06-10 10:45:00,66.8,59.4,30.07,North,360,0.0,1.0,77,0.00,,BKN090,0.00,VWS V14.00,2013-06-10 14:45:00,
2013-06-10 10:50:00,67.1,59.3,30.07,ESE,121,0.0,2.0,76,0.00,,BKN110,0.00,VWS V14.00,2013-06-10 14:50:00,
2013-06-10 10:55:00,67.3,60.2,30.07,NE,38,0.0,0.0,78,0.00,,BKN110,0.00,VWS V14.00,2013-06-10 14:55:00,
2013-06-10 11:00:00,67.3,59.8,30.07,East,100,0.0,0.0,77,0.00,,BKN110,0.00,VWS V14.00,2013-06-10 15:00:00,
2013-06-10 11:05:00,67.3,60.2,30.06,East,100,0.0,0.0,78,0.00,,BKN110,0.00,VWS V14.00,2013-06-10 15:05:00,
2013-06-10 11:10:00,67.6,60.1,30.06,East,101,0.0,3.0,77,0.00,,BKN110,0.00,VWS V14.00,2013-06-10 15:10:00,
2013-06-10 11:15:00,67.8,61.1,30.06,ENE,78,0.0,1.0,79,0.00,,BKN110,0.00,VWS V14.00,2013-06-10 15:15:00,
2013-06-10 11:20:00,67.9,60.8,30.06,East,81,0.0,5.0,78,0.00,,BKN110,0.00,VWS V14.00,2013-06-10 15:20:00,
2013-06-10 11:25:00,68.1,61.0,30.06,East,80,0.0,3.0,78,0.00,,BKN110,0.00,VWS V14.00,2013-06-10 15:25:00,
2013-06-10 11:30:00,68.1,61.0,30.05,East,82,2.0,6.0,78,0.00,,BKN110,0.00,VWS V14.00,2013-06-10 15:30:00,
2013-06-10 11:35:00,68.4,61.6,30.05,NE,42,0.0,4.0,79,0.00,,BKN110,0.00,VWS V14.00,2013-06-10 15:35:00,
2013-06-10 11:40:00,68.6,61.1,30.05,ESE,112,4.0,4.0,77,0.00,,BKN110,0.00,VWS V14.00,2013-06-10 15:40:00,
2013-06-10 11:45:00,68.9,61.0,30.05,West,278,0.0,0.0,76,0.00,,BKN110,0.00,VWS V14.00,2013-06-10 15:45:00,
2013-06-10 11:50:00,69.6,62.1,30.05,SSE,161,0.0,2.0,77,0.00,,OVC100,0.00,VWS V14.00,2013-06-10 15:50:00,
2013-06-10 11:55:00,69.9,62.7,30.05,SSE,161,0.0,1.0,78,0.00,,OVC100,0.00,VWS V14.00,2013-06-10 15:55:00,
2013-06-10 12:00:00,69.6,61.7,30.05,ENE,76,4.0,4.0,76,0.00,,OVC100,0.00,VWS V14.00,2013-06-10 16:00:00,
2013-06-10 12:05:00,69.4,61.9,30.05,ESE,103,0.0,2.0,77,0.00,,OVC100,0.00,VWS V14.00,2013-06-10 16:05:00,
2013-06-10 12:10:00,69.8,61.5,30.05,ESE,117,1.0,2.0,75,0.00,,OVC100,0.00,VWS V14.00,2013-06-10 16:10:00,
2013-06-10 12:15:00,70.3,62.0,30.05,ENE,74,0.0,2.0,75,0.00,,OVC100,0.00,VWS V14.00,2013-06-10 16:15:00,
2013-06-10 12:20:00,70.4,62.1,30.05,ENE,74,0.0,2.0,75,0.00,,OVC100,0.00,VWS V14.00,2013-06-10 16:20:00,
2013-06-10 12:25:00,70.1,61.8,30.05,ESE,116,0.0,1.0,75,0.00,,OVC100,0.00,VWS V14.00,2013-06-10 16:25:00,
2013-06-10 12:30:00,70.3,62.0,30.04,ESE,117,0.0,3.0,75,0.00,,OVC100,0.00,VWS V14.00,2013-06-10 16:30:00,
2013-06-10 12:35:00,70.4,62.1,30.04,ESE,107,1.0,5.0,75,0.00,,OVC100,0.00,VWS V14.00,2013-06-10 16:35:00,
2013-06-10 12:40:00,70.3,62.0,30.04,SSE,159,2.0,3.0,75,0.00,,OVC100,0.00,VWS V14.00,2013-06-10 16:40:00,
2013-06-10 12:45:00,70.4,62.5,30.03,SSE,165,1.0,1.0,76,0.00,,OVC100,0.00,VWS V14.00,2013-06-10 16:45:00,
2013-06-10 12:51:00,70.4,62.1,30.03,ESE,103,3.0,12.0,75,0.00,,BKN100,0.00,VWS V14.00,2013-06-10 16:51:00,
2013-06-10 12:56:00,70.4,62.1,30.03,ESE,117,3.0,5.0,75,0.00,,BKN100,0.00,VWS V14.00,2013-06-10 16:56:00,
2013-06-10 13:01:00,70.3,62.0,30.03,South,170,0.0,1.0,75,0.00,,BKN100,0.00,VWS V14.00,2013-06-10 17:01:00,
2013-06-10 13:06:00,70.1,62.2,30.03,South,172,0.0,2.0,76,0.00,,BKN100,0.00,VWS V14.00,2013-06-10 17:06:00,
2013-06-10 13:11:00,69.9,62.0,30.03,ESE,105,1.0,2.0,76,0.00,,BKN100,0.00,VWS V14.00,2013-06-10 17:11:00,
2013-06-10 13:16:00,69.8,61.9,30.03,ENE,78,0.0,1.0,76,0.00,,BKN100,0.00,VWS V14.00,2013-06-10 17:16:00,
2013-06-10 13:21:00,69.9,62.4,30.03,SE,124,0.0,1.0,77,0.00,,BKN100,0.00,VWS V14.00,2013-06-10 17:21:00,
2013-06-10 13:26:00,70.1,62.9,30.03,SSE,164,1.0,4.0,78,0.00,,BKN100,0.00,VWS V14.00,2013-06-10 17:26:00,
2013-06-10 13:31:00,69.9,62.4,30.02,SE,129,1.0,4.0,77,0.00,,BKN100,0.00,VWS V14.00,2013-06-10 17:31:00,
2013-06-10 13:36:00,69.8,62.6,30.02,SSE,148,1.0,5.0,78,0.00,,BKN100,0.00,VWS V14.00,2013-06-10 17:36:00,
2013-06-10 13:41:00,69.6,62.4,30.02,SSE,153,0.0,1.0,78,0.00,,BKN100,0.00,VWS V14.00,2013-06-10 17:41:00,
2013-06-10 13:46:00,69.4,62.6,30.02,ESE,119,0.0,1.0,79,0.00,,BKN100,0.00,VWS V14.00,2013-06-10 17:46:00,
2013-06-10 13:51:00,69.4,63.0,30.02,ENE,76,1.0,1.0,80,0.00,,-RA,0.00,VWS V14.00,2013-06-10 17:51:00,
2013-06-10 13:56:00,69.3,62.5,30.02,East,100,0.0,1.0,79,0.00,,-RA,0.00,VWS V14.00,2013-06-10 17:56:00,
2013-06-10 14:01:00,69.3,62.5,30.02,ESE,113,2.0,2.0,79,0.00,,-RA,0.00,VWS V14.00,2013-06-10 18:01:00,
2013-06-10 14:06:00,69.4,62.6,30.02,SW,217,1.0,2.0,79,0.00,,-RA,0.00,VWS V14.00,2013-06-10 18:06:00,
2013-06-10 14:11:00,69.4,61.9,30.02,SE,145,5.0,11.0,77,0.00,,-RA,0.00,VWS V14.00,2013-06-10 18:11:00,
2013-06-10 14:16:00,69.3,61.8,30.02,SSE,166,1.0,9.0,77,0.00,,-RA,0.00,VWS V14.00,2013-06-10 18:16:00,
2013-06-10 14:21:00,69.1,61.6,30.02,WSW,246,9.0,9.0,77,0.00,,-RA,0.00,VWS V14.00,2013-06-10 18:21:00,
2013-06-10 14:26:00,68.9,61.8,30.02,NE,38,4.0,5.0,78,0.00,,-RA,0.00,VWS V14.00,2013-06-10 18:26:00,
2013-06-10 14:31:00,68.6,61.8,30.01,SE,133,1.0,3.0,79,0.00,,-RA,0.00,VWS V14.00,2013-06-10 18:31:00,
2013-06-10 14:36:00,68.3,61.9,30.01,ENE,69,0.0,5.0,80,0.00,,-RA,0.00,VWS V14.00,2013-06-10 18:36:00,
2013-06-10 14:41:00,67.6,61.9,30.01,SSE,160,2.0,7.0,82,0.00,,-RA,0.00,VWS V14.00,2013-06-10 18:41:00,
2013-06-10 14:46:00,67.1,62.1,30.01,SE,126,0.0,3.0,84,0.00,,-RA,0.00,VWS V14.00,2013-06-10 18:46:00,
2013-06-10 14:51:00,66.8,62.2,30.01,East,93,2.0,2.0,85,0.01,,-RA,0.01,VWS V14.00,2013-06-10 18:51:00,
2013-06-10 14:56:00,66.4,62.1,30.01,East,94,0.0,3.0,86,0.01,,-RA,0.01,VWS V14.00,2013-06-10 18:56:00,
2013-06-10 15:01:00,66.4,62.4,30.00,ENE,71,4.0,4.0,87,0.01,,-RA,0.01,VWS V14.00,2013-06-10 19:01:00,
2013-06-10 15:06:00,66.3,62.3,30.00,ENE,68,1.0,2.0,87,0.01,,-RA,0.01,VWS V14.00,2013-06-10 19:06:00,
2013-06-10 15:11:00,66.1,62.1,30.00,SSE,163,1.0,3.0,87,0.01,,-RA,0.01,VWS V14.00,2013-06-10 19:11:00,
2013-06-10 15:17:00,66.0,62.3,30.00,ESE,122,0.0,1.0,88,0.01,,-RA,0.01,VWS V14.00,2013-06-10 19:17:00,
2013-06-10 15:22:00,65.6,62.0,30.00,East,97,3.0,10.0,88,0.02,,-RA,0.02,VWS V14.00,2013-06-10 19:22:00,
2013-06-10 15:27:00,65.3,62.0,30.00,East,90,1.0,2.0,89,0.03,,-RA,0.03,VWS V14.00,2013-06-10 19:27:00,
2013-06-10 15:32:00,65.2,61.9,30.00,SSE,156,0.0,3.0,89,0.04,,-RA,0.04,VWS V14.00,2013-06-10 19:32:00,
2013-06-10 15:37:00,65.0,62.0,30.00,SSW,204,1.0,5.0,90,0.05,,-RA,0.05,VWS V14.00,2013-06-10 19:37:00,
2013-06-10 15:42:00,65.0,62.0,30.00,South,171,2.0,4.0,90,0.06,,-RA,0.06,VWS V14.00,2013-06-10 19:42:00,
2013-06-10 15:47:00,64.8,61.8,29.99,ESE,123,1.0,2.0,90,0.06,,RA,0.06,VWS V14.00,2013-06-10 19:47:00,
2013-06-10 15:52:00,64.8,61.8,29.99,NE,51,0.0,2.0,90,0.07,,RA,0.07,VWS V14.00,2013-06-10 19:52:00,
2013-06-10 15:57:00,64.7,61.7,29.99,South,177,0.0,3.0,90,0.09,,RA,0.09,VWS V14.00,2013-06-10 19:57:00,
2013-06-10 16:02:00,64.7,61.7,29.98,SSE,150,3.0,3.0,90,0.09,,-RA,0.10,VWS V14.00,2013-06-10 20:02:00,
2013-06-10 16:07:00,64.3,61.6,29.98,East,82,2.0,5.0,91,0.10,,-RA,0.11,VWS V14.00,2013-06-10 20:07:00,
2013-06-10 16:12:00,63.9,61.2,29.98,ENE,76,1.0,1.0,91,0.11,,-RA,0.12,VWS V14.00,2013-06-10 20:12:00,
2013-06-10 16:18:00,63.7,61.0,29.98,SE,131,2.0,2.0,91,0.12,,-RA,0.13,VWS V14.00,2013-06-10 20:18:00,
2013-06-10 16:23:00,63.2,60.8,29.98,NNE,22,4.0,5.0,92,0.13,,-RA,0.14,VWS V14.00,2013-06-10 20:23:00,
2013-06-10 16:28:00,63.2,60.8,29.98,NE,53,0.0,1.0,92,0.14,,-RA,0.15,VWS V14.00,2013-06-10 20:28:00,
2013-06-10 16:33:00,63.2,60.8,29.97,East,92,2.0,5.0,92,0.12,,RA,0.16,VWS V14.00,2013-06-10 20:33:00,
2013-06-10 16:38:00,63.1,60.7,29.97,SSE,164,0.0,4.0,92,0.13,,RA,0.17,VWS V14.00,2013-06-10 20:38:00,
2013-06-10 16:43:00,62.9,60.5,29.97,SSE,164,1.0,2.0,92,0.14,,RA,0.18,VWS V14.00,2013-06-10 20:43:00,
2013-06-10 16:48:00,62.9,60.5,29.96,ESE,108,1.0,2.0,92,0.13,,RA,0.19,VWS V14.00,2013-06-10 20:48:00,
2013-06-10 16:53:00,62.9,60.5,29.96,East,87,3.0,4.0,92,0.13,,RA,0.19,VWS V14.00,2013-06-10 20:53:00,
2013-06-10 16:58:00,62.7,60.3,29.96,ESE,123,0.0,1.0,92,0.14,,RA,0.20,VWS V14.00,2013-06-10 20:58:00,
2013-06-10 17:03:00,62.7,60.3,29.96,NE,43,0.0,1.0,92,0.12,,-RA,0.21,VWS V14.00,2013-06-10 21:03:00,
2013-06-10 17:08:00,62.7,60.7,29.96,South,178,0.0,1.0,93,0.12,,-RA,0.21,VWS V14.00,2013-06-10 21:08:00,
2013-06-10 17:13:00,62.6,60.2,29.96,ENE,78,0.0,5.0,92,0.13,,-RA,0.22,VWS V14.00,2013-06-10 21:13:00,
2013-06-10 17:18:00,62.3,60.0,29.96,ENE,63,0.0,4.0,92,0.10,,-RA,0.23,VWS V14.00,2013-06-10 21:18:00,
2013-06-10 17:23:00,62.1,59.8,29.96,SE,145,0.0,2.0,92,0.10,,-RA,0.23,VWS V14.00,2013-06-10 21:23:00,
2013-06-10 17:28:00,62.0,59.7,29.96,SSE,149,1.0,2.0,92,0.11,,-RA,0.24,VWS V14.00,2013-06-10 21:28:00,
2013-06-10 17:33:00,61.8,59.5,29.95,ENE,58,0.0,1.0,92,0.10,,-RA,0.25,VWS V14.00,2013-06-10 21:33:00,
2013-06-10 17:38:00,61.8,59.8,29.95,SE,135,0.0,1.0,93,0.13,,-RA,0.28,VWS V14.00,2013-06-10 21:38:00,
2013-06-10 17:43:00,61.6,59.6,29.95,ENE,76,4.0,4.0,93,0.15,,-RA,0.30,VWS V14.00,2013-06-10 21:43:00,
2013-06-10 17:48:00,61.6,59.6,29.95,SE,133,2.0,2.0,93,0.12,,-RA,0.31,VWS V14.00,2013-06-10 21:48:00,
2013-06-10 17:53:00,61.6,59.6,29.95,North,5,4.0,4.0,93,0.15,,-RA,0.34,VWS V14.00,2013-06-10 21:53:00,
2013-06-10 17:58:00,61.5,59.5,29.95,ENE,76,0.0,2.0,93,0.18,,-RA,0.37,VWS V14.00,2013-06-10 21:58:00,
2013-06-10 18:03:00,61.5,59.5,29.94,SE,146,0.0,2.0,93,0.21,, +RA,0.41,VWS V14.00,2013-06-10 22:03:00,
2013-06-10 18:08:00,61.5,59.5,29.94,NW,304,0.0,2.0,93,0.26,, +RA,0.46,VWS V14.00,2013-06-10 22:08:00,
2013-06-10 18:13:00,61.5,59.5,29.94,East,85,0.0,1.0,93,0.29,, +RA,0.49,VWS V14.00,2013-06-10 22:13:00,
2013-06-10 18:18:00,61.5,59.5,29.93,East,94,1.0,1.0,93,0.30,, +RA,0.52,VWS V14.00,2013-06-10 22:18:00,
2013-06-10 18:23:00,61.5,59.5,29.93,East,83,0.0,1.0,93,0.31,, +RA,0.53,VWS V14.00,2013-06-10 22:23:00,
2013-06-10 18:28:00,61.3,59.3,29.93,ENE,65,4.0,4.0,93,0.32,, +RA,0.54,VWS V14.00,2013-06-10 22:28:00,
2013-06-10 18:33:00,61.3,59.3,29.92,NE,54,3.0,10.0,93,0.29,, +RA,0.54,VWS V14.00,2013-06-10 22:33:00,
2013-06-10 18:38:00,61.2,59.2,29.92,NNE,17,7.0,7.0,93,0.29,, +RA,0.54,VWS V14.00,2013-06-10 22:38:00,
2013-06-10 18:43:00,61.0,59.0,29.92,ENE,59,0.0,1.0,93,0.30,, +RA,0.55,VWS V14.00,2013-06-10 22:43:00,
2013-06-10 18:48:00,61.0,59.0,29.92,NNW,344,2.0,2.0,93,0.24,,-RA,0.55,VWS V14.00,2013-06-10 22:48:00,
2013-06-10 18:53:00,60.9,58.9,29.92,ENE,64,0.0,2.0,93,0.24,,-RA,0.55,VWS V14.00,2013-06-10 22:53:00,
2013-06-10 18:58:00,60.9,58.9,29.92,East,89,3.0,6.0,93,0.25,,-RA,0.56,VWS V14.00,2013-06-10 22:58:00,
2013-06-10 19:03:00,60.7,58.7,29.91,East,86,1.0,1.0,93,0.17,,-RA,0.56,VWS V14.00,2013-06-10 23:03:00,
2013-06-10 19:08:00,60.7,58.7,29.91,ESE,113,3.0,10.0,93,0.17,,-RA,0.56,VWS V14.00,2013-06-10 23:08:00,
2013-06-10 19:13:00,60.5,58.5,29.91,NNW,342,0.0,2.0,93,0.18,,-RA,0.57,VWS V14.00,2013-06-10 23:13:00,
2013-06-10 19:18:00,60.5,58.8,29.90,NNE,20,0.0,1.0,94,0.06,,-RA,0.57,VWS V14.00,2013-06-10 23:18:00,
2013-06-10 19:23:00,60.5,58.8,29.90,South,190,0.0,1.0,94,0.07,,-RA,0.58,VWS V14.00,2013-06-10 23:23:00,
2013-06-10 19:28:00,60.5,58.8,29.90,South,173,1.0,1.0,94,0.08,,-RA,0.59,VWS V14.00,2013-06-10 23:28:00,
2013-06-10 19:33:00,60.4,58.7,29.90,North,355,0.0,5.0,94,0.07,,-RA,0.61,VWS V14.00,2013-06-10 23:33:00,
2013-06-10 19:38:00,60.2,58.5,29.90,West,269,2.0,2.0,94,0.09,,-RA,0.63,VWS V14.00,2013-06-10 23:38:00,
2013-06-10 19:43:00,60.1,58.1,29.90,SE,130,0.0,0.0,93,0.10,,-RA,0.64,VWS V14.00,2013-06-10 23:43:00,
2013-06-10 19:48:00,60.1,58.4,29.91,ESE,111,4.0,4.0,94,0.14,,RA,0.69,VWS V14.00,2013-06-10 23:48:00,
2013-06-10 19:53:00,59.9,57.9,29.91,East,91,0.0,2.0,93,0.17,,RA,0.72,VWS V14.00,2013-06-10 23:53:00,
2013-06-10 19:58:00,59.8,58.1,29.91,South,171,1.0,3.0,94,0.20,,RA,0.75,VWS V14.00,2013-06-10 23:58:00,
2013-06-10 20:04:00,59.8,58.1,29.90,East,84,0.0,1.0,94,0.21,,RA,0.77,VWS V14.00,2013-06-11 00:04:00,
2013-06-10 20:09:00,59.6,57.9,29.90,South,169,0.0,1.0,94,0.22,,RA,0.78,VWS V14.00,2013-06-11 00:09:00,
2013-06-10 20:14:00,59.5,57.8,29.90,East,95,1.0,6.0,94,0.24,,RA,0.80,VWS V14.00,2013-06-11 00:14:00,
2013-06-10 20:19:00,59.5,57.8,29.90,NNW,333,3.0,5.0,94,0.23,,RA,0.80,VWS V14.00,2013-06-11 00:19:00,
2013-06-10 20:24:00,59.5,57.8,29.90,WNW,286,0.0,3.0,94,0.24,,RA,0.81,VWS V14.00,2013-06-11 00:24:00,
2013-06-10 20:29:00,59.5,57.8,29.90,NE,46,0.0,1.0,94,0.24,,RA,0.81,VWS V14.00,2013-06-11 00:29:00,
2013-06-10 20:34:00,59.3,57.6,29.89,NE,56,0.0,2.0,94,0.21,,RA,0.81,VWS V14.00,2013-06-11 00:34:00,
2013-06-10 20:39:00,59.5,57.8,29.89,SSE,161,0.0,1.0,94,0.21,,RA,0.81,VWS V14.00,2013-06-11 00:39:00,
2013-06-10 20:44:00,59.5,57.8,29.89,North,5,0.0,3.0,94,0.21,,RA,0.81,VWS V14.00,2013-06-11 00:44:00,
2013-06-10 20:49:00,59.5,57.8,29.89,ESE,105,0.0,7.0,94,0.16,,-RA,0.82,VWS V14.00,2013-06-11 00:49:00,
2013-06-10 20:54:00,59.5,57.8,29.89,East,92,0.0,5.0,94,0.16,,-RA,0.82,VWS V14.00,2013-06-11 00:54:00,
2013-06-10 20:59:00,59.3,57.6,29.89,NE,36,0.0,1.0,94,0.16,,-RA,0.82,VWS V14.00,2013-06-11 00:59:00,
2013-06-10 21:04:00,59.3,57.6,29.89,ENE,59,1.0,4.0,94,0.05,,-RA,0.82,VWS V14.00,2013-06-11 01:04:00,
2013-06-10 21:09:00,59.3,57.6,29.89,WSW,253,0.0,0.0,94,0.06,,-RA,0.83,VWS V14.00,2013-06-11 01:09:00,
2013-06-10 21:14:00,59.3,57.6,29.89,SW,236,0.0,1.0,94,0.06,,-RA,0.83,VWS V14.00,2013-06-11 01:14:00,
2013-06-10 21:19:00,59.3,57.6,29.87,SW,236,0.0,1.0,94,0.03,,-RA,0.83,VWS V14.00,2013-06-11 01:19:00,
2013-06-10 21:24:00,59.3,57.6,29.87,NW,314,0.0,0.0,94,0.03,,-RA,0.83,VWS V14.00,2013-06-11 01:24:00,
2013-06-10 21:29:00,59.3,57.6,29.87,ESE,107,2.0,3.0,94,0.04,,-RA,0.84,VWS V14.00,2013-06-11 01:29:00,
2013-06-10 21:34:00,59.3,57.6,29.87,WNW,302,0.0,0.0,94,0.03,,-RA,0.84,VWS V14.00,2013-06-11 01:34:00,
2013-06-10 21:39:00,59.3,57.6,29.87,NW,304,0.0,2.0,94,0.03,,-RA,0.84,VWS V14.00,2013-06-11 01:39:00,
2013-06-10 21:44:00,59.3,57.6,29.87,ESE,111,1.0,3.0,94,0.03,,-RA,0.84,VWS V14.00,2013-06-11 01:44:00,
2013-06-10 21:49:00,59.3,57.6,29.87,NNW,344,2.0,2.0,94,0.02,,-RA,0.84,VWS V14.00,2013-06-11 01:49:00,
2013-06-10 21:54:00,59.3,57.6,29.87,SE,132,0.0,3.0,94,0.02,,-RA,0.84,VWS V14.00,2013-06-11 01:54:00,
2013-06-10 21:59:00,59.2,57.5,29.87,ENE,63,4.0,5.0,94,0.03,,-RA,0.85,VWS V14.00,2013-06-11 01:59:00,
2013-06-10 22:04:00,59.2,57.5,29.86,ENE,58,5.0,5.0,94,0.03,,-RA,0.85,VWS V14.00,2013-06-11 02:04:00,
2013-06-10 22:09:00,59.2,57.5,29.86,SW,234,0.0,0.0,94,0.03,,-RA,0.85,VWS V14.00,2013-06-11 02:09:00,
2013-06-10 22:14:00,59.2,57.5,29.86,East,80,0.0,1.0,94,0.05,,-RA,0.87,VWS V14.00,2013-06-11 02:14:00,
2013-06-10 22:19:00,59.0,57.3,29.86,ENE,78,0.0,2.0,94,0.05,,-RA,0.88,VWS V14.00,2013-06-11 02:19:00,
2013-06-10 22:24:00,59.0,57.3,29.86,NE,42,1.0,6.0,94,0.06,,-RA,0.89,VWS V14.00,2013-06-11 02:24:00,
2013-06-10 22:29:00,59.0,57.3,29.86,NNW,335,1.0,9.0,94,0.07,,-RA,0.90,VWS V14.00,2013-06-11 02:29:00,
2013-06-10 22:34:00,59.0,57.6,29.84,NNW,340,2.0,3.0,95,0.06,,-RA,0.90,VWS V14.00,2013-06-11 02:34:00,
2013-06-10 22:39:00,59.0,57.6,29.84,North,350,0.0,0.0,95,0.06,,-RA,0.90,VWS V14.00,2013-06-11 02:39:00,
2013-06-10 22:44:00,59.0,57.6,29.84,SSW,192,1.0,3.0,95,0.09,,-RA,0.93,VWS V14.00,2013-06-11 02:44:00,
2013-06-10 22:49:00,59.0,57.6,29.85,North,10,1.0,4.0,95,0.14,,-RA,0.98,VWS V14.00,2013-06-11 02:49:00,
2013-06-10 22:54:00,59.0,57.6,29.85,NE,44,0.0,1.0,95,0.17,,-RA,1.01,VWS V14.00,2013-06-11 02:54:00,
2013-06-10 22:59:00,58.9,57.5,29.85,SSW,195,2.0,9.0,95,0.19,,-RA,1.03,VWS V14.00,2013-06-11 02:59:00,
2013-06-10 23:04:00,58.9,57.5,29.82,NW,325,2.0,3.0,95,0.19,,-RA,1.04,VWS V14.00,2013-06-11 03:04:00,
2013-06-10 23:09:00,58.9,57.5,29.82,WNW,286,0.0,1.0,95,0.20,,-RA,1.05,VWS V14.00,2013-06-11 03:09:00,
2013-06-10 23:14:00,58.9,57.5,29.82,WNW,286,0.0,0.0,95,0.22,,-RA,1.07,VWS V14.00,2013-06-11 03:14:00,
2013-06-10 23:19:00,58.9,57.5,29.84,WNW,286,0.0,0.0,95,0.21,,-RA,1.08,VWS V14.00,2013-06-11 03:19:00,
2013-06-10 23:24:00,58.9,57.5,29.84,WNW,286,0.0,0.0,95,0.21,,-RA,1.08,VWS V14.00,2013-06-11 03:24:00,
2013-06-10 23:29:00,58.9,57.5,29.84,ENE,69,0.0,2.0,95,0.22,,-RA,1.09,VWS V14.00,2013-06-11 03:29:00,
2013-06-10 23:34:00,58.9,57.5,29.83,NW,315,2.0,4.0,95,0.20,,-RA,1.10,VWS V14.00,2013-06-11 03:34:00,
2013-06-10 23:39:00,58.7,57.3,29.83,ESE,117,0.0,1.0,95,0.20,,-RA,1.10,VWS V14.00,2013-06-11 03:39:00,
2013-06-10 23:44:00,58.7,57.3,29.83,ESE,109,0.0,2.0,95,0.21,,-RA,1.11,VWS V14.00,2013-06-11 03:44:00,
2013-06-10 23:49:00,58.7,57.3,29.82,East,84,0.0,0.0,95,0.16,,-RA,1.11,VWS V14.00,2013-06-11 03:49:00,
2013-06-10 23:54:00,58.7,57.3,29.82,NNW,345,0.0,3.0,95,0.16,,-RA,1.11,VWS V14.00,2013-06-11 03:54:00,
2013-06-10 23:59:00,58.7,57.3,29.82,East,86,2.0,2.0,95,0.16,,-RA,1.11,VWS V14.00,2013-06-11 03:59:00,